Wind_Speed
21 22 23 24 25 26 27 27 28 26 26 24 26 28 30 31 32 32 33 33 33 33 34 35 36 37 38 39 40 41 41 42 42 42 42 43 43 44 44 44 44 44 43 42
23 24 25 26 26 27 27 28 28 27 25 25 27 27 28 30 31 31 32 32 33 33 33 34 34 35 36 37 37 38 39 39 40 40 40 41 41 41 41 40 41 41 41 40
23 24 26 26 25 26 28 27 29 29 26 27 27 28 28 29 30 30 31 31 32 33 33 33 33 34 34 34 35 36 36 37 37 38 38 38 38 38 38 38 38 38 37 37
23 24 26 24 24 26 27 27 28 28 28 28 28 28 28 28 29 29 29 30 32 33 33 33 33 33 33 33 33 34 34 35 35 35 36 36 37 37 36 36 35 35 35 35
23 24 24 22 23 24 26 27 27 27 27 28 28 27 27 28 28 28 29 30 30 31 32 32 32 32 32 32 32 32 32 32 32 33 33 33 33 34 34 34 33 33 33 32
24 25 25 22 23 24 24 25 25 26 26 26 26 26 27 27 27 27 28 28 28 29 30 30 30 30 30 30 30 30 30 31 31 31 31 31 31 31 31 31 31 31 31 31
25 26 25 24 24 23 23 23 23 24 25 25 25 26 26 27 27 27 27 26 27 27 28 28 28 29 29 29 29 29 29 29 29 30 30 30 30 30 29 29 29 29 29 30
25 25 24 23 23 24 24 24 24 24 24 24 24 24 25 26 26 26 26 26 26 26 26 27 27 27 28 28 28 28 28 28 28 28 29 29 29 29 29 29 29 29 29 29
24 24 24 24 23 24 24 24 24 24 24 24 23 23 24 24 25 25 25 25 26 26 26 26 27 27 27 27 28 28 28 28 28 28 28 28 28 28 28 28 28 28 28 28
24 23 24 24 23 24 24 24 24 24 24 24 24 24 24 23 23 24 24 25 26 26 26 27 27 27 27 27 27 28 28 28 28 28 28 27 27 27 27 27 27 27 27 27
23 24 25 25 24 24 25 25 25 24 24 23 24 24 24 24 24 24 24 24 25 26 26 27 27 27 27 28 28 28 27 27 27 27 26 26 27 27 27 27 27 27 27 27
22 23 24 25 25 24 24 24 24 24 23 23 23 24 24 24 24 24 24 24 24 24 25 26 26 26 26 27 27 27 27 27 27 27 27 27 27 28 28 27 27 27 27 28
22 23 24 24 24 24 24 24 24 24 24 24 23 23 23 23 24 24 24 24 24 24 24 25 26 26 26 27 27 27 27 27 27 27 27 27 28 28 28 28 28 28 28 29
21 21 22 23 23 24 23 24 25 25 24 24 24 23 23 23 23 23 23 24 24 24 24 24 25 26 26 26 26 26 27 27 27 27 27 27 27 28 28 28 28 28 29 29
19 19 20 21 21 22 22 22 23 24 24 24 24 24 24 23 23 24 24 24 25 25 25 25 25 26 26 26 26 26 27 27 27 28 27 27 28 28 28 29 29 29 30 30
17 17 18 19 20 20 21 21 21 22 23 23 24 24 24 24 24 24 24 25 26 26 26 26 26 27 27 27 27 27 27 28 28 28 29 29 29 29 29 30 30 31 31 32
17 17 17 17 18 19 20 20 21 22 23 23 24 24 24 24 25 25 25 25 26 27 27 27 27 27 28 28 29 29 29 29 29 29 29 30 30 30 30 30 31 31 32 32
18 18 18 18 18 19 19 20 20 21 22 22 22 23 23 24 24 25 25 26 26 27 28 28 29 29 29 30 30 30 30 30 30 30 30 31 30 31 31 31 32 32 32 33
19 18 18 17 17 18 19 20 21 21 21 22 22 23 23 23 24 25 25 26 27 27 28 28 29 29 29 30 31 31 31 31 31 32 32 32 32 32 32 33 33 33 34 34
20 19 18 17 17 17 18 19 20 20 21 22 22 22 22 22 23 23 24 25 26 27 27 28 28 29 30 31 31 32 32 33 33 33 33 34 34 34 34 35 35 35 35 35
20 19 19 18 17 17 18 19 19 19 20 20 21 22 22 22 22 23 24 25 25 26 27 27 28 29 29 30 31 32 33 33 33 34 34 35 35 35 36 36 36 36 37 37
21 20 20 19 18 18 18 19 19 19 19 20 21 22 22 23 23 24 24 25 25 26 26 27 28 28 29 30 30 31 32 33 33 34 34 35 35 36 36 37 37 37 37 38
21 20 20 19 19 19 19 20 20 20 20 20 20 21 22 23 24 24 24 25 25 26 26 27 28 28 29 29 30 31 32 32 33 34 34 35 35 35 36 37 37 38 38 38
20 20 20 20 20 20 20 20 21 20 20 20 20 21 21 22 22 23 24 24 25 26 26 26 27 28 28 29 30 30 31 32 33 33 34 35 35 36 36 37 37 38 38 39
20 19 20 20 20 20 20 21 21 22 22 22 22 22 22 22 23 23 23 23 24 25 25 26 26 27 28 28 29 29 30 30 31 32 33 34 35 36 36 37 38 39 39 40
19 19 19 19 19 20 20 21 21 22 23 23 23 23 23 24 24 24 24 24 25 25 25 26 26 27 28 28 29 29 30 30 31 32 33 34 35 36 37 37 38 39 40 40
20 19 19 19 19 20 21 21 22 22 23 24 24 25 25 25 25 25 25 26 26 27 27 27 28 28 29 29 30 30 31 32 32 33 34 35 36 37 38 38 39 40 41 41
Wind_Direction
254 250 248 245 243 245 247 251 252 250 248 247 250 249 248 248 248 249 250 251 253 254 256 256 257 258 258 259 259 260 261 261 262 262 263 264 264 265 265 266 266 267 268 269
256 254 252 249 248 249 252 253 254 254 251 250 251 252 251 251 250 251 252 252 254 255 256 257 257 258 259 260 261 262 262 263 263 263 264 264 265 265 265 266 266 267 267 267
261 256 255 254 254 254 254 255 255 255 254 252 252 253 253 252 251 252 253 253 254 255 256 257 257 258 260 260 261 262 262 263 263 263 264 264 264 265 265 265 266 266 266 266
266 261 258 259 256 256 255 255 256 256 255 255 255 255 255 254 252 252 253 253 253 254 255 256 257 259 259 260 261 262 263 263 264 264 264 264 263 264 264 264 264 264 264 265
266 265 264 260 257 257 256 254 255 255 255 256 256 256 255 254 253 254 254 254 254 254 255 256 258 258 258 259 261 262 262 263 264 264 264 263 263 263 263 263 263 263 264 265
266 265 266 264 261 260 258 256 254 255 256 256 255 255 253 253 253 253 254 254 254 254 255 256 256 257 258 259 259 261 262 263 263 263 264 264 263 263 262 262 262 262 263 263
267 266 267 265 263 260 259 258 256 256 255 255 254 254 253 253 253 253 252 253 253 254 254 254 255 256 257 257 258 260 262 263 263 263 263 263 263 262 261 261 261 262 262 263
268 266 267 264 262 260 259 258 258 256 255 255 255 254 254 254 254 253 251 252 252 252 253 254 255 256 257 257 258 260 261 262 263 263 263 263 263 262 261 261 261 261 262 263
270 266 264 262 260 258 257 257 257 256 255 254 254 254 254 254 253 252 251 251 251 251 252 253 255 256 257 258 259 259 261 262 263 263 264 263 263 262 261 261 261 261 262 262
269 265 262 260 260 256 255 255 255 255 255 254 253 253 253 253 252 251 251 251 251 251 251 252 254 256 257 259 259 261 262 262 262 263 263 263 263 262 261 261 261 261 261 262
267 263 261 258 260 256 254 253 253 255 255 255 254 254 253 253 252 253 253 252 252 252 252 253 254 256 258 258 260 260 261 262 262 263 262 261 261 261 262 261 261 262 262 263
269 263 260 257 258 258 255 253 252 252 254 255 256 255 253 252 252 253 254 253 253 253 253 254 255 257 258 259 259 259 260 261 262 262 262 262 262 261 261 261 261 262 263 264
273 265 261 257 257 257 255 251 251 252 253 254 255 255 254 253 252 253 253 253 253 253 254 255 256 258 259 259 259 259 260 262 263 263 263 263 262 262 261 261 262 263 264 266
279 271 264 259 258 257 255 252 251 251 252 254 254 254 254 254 253 254 253 253 253 255 255 255 256 258 259 259 260 261 261 261 263 264 264 264 264 263 262 261 263 264 266 268
284 277 268 262 260 258 255 254 253 253 253 255 254 254 253 254 255 255 254 254 255 255 255 257 258 259 260 262 262 262 261 262 263 263 264 264 264 264 264 263 264 266 267 269
285 278 273 266 260 259 257 254 252 252 254 256 256 254 253 254 256 257 257 256 256 256 256 257 259 260 261 262 263 263 262 262 263 263 264 264 265 265 265 265 265 267 268 269
286 278 274 269 263 261 260 257 255 254 255 256 256 255 254 255 256 258 258 258 258 257 258 258 260 261 262 263 264 264 264 263 263 263 263 264 264 265 266 266 267 268 269 270
288 282 279 274 268 262 259 258 257 257 257 258 257 257 256 257 258 258 257 258 259 259 259 260 260 262 262 263 264 264 264 263 263 263 263 264 265 266 267 267 268 269 269 271
288 284 279 274 270 266 261 259 259 259 259 258 258 259 259 259 260 260 260 260 261 262 262 262 262 262 262 263 264 264 264 264 264 264 264 264 265 266 267 268 269 270 270 271
286 282 277 273 272 268 265 263 262 260 261 260 259 259 259 260 262 262 263 263 264 264 265 264 264 263 264 264 264 264 265 265 265 265 265 265 265 267 268 268 269 270 270 271
283 278 275 273 272 269 266 264 263 262 262 261 259 259 260 262 264 265 265 265 266 266 266 266 266 266 266 266 266 266 266 265 265 265 266 266 267 268 268 269 269 270 271 272
282 276 272 271 270 268 265 265 264 263 263 263 263 262 263 264 266 267 268 268 268 269 268 268 268 269 269 268 269 268 267 267 266 266 267 267 267 268 268 269 269 270 271 273
282 276 271 270 269 267 265 265 265 265 265 265 265 266 266 267 268 269 270 270 270 270 271 271 271 271 271 271 271 270 269 268 268 268 268 268 268 269 269 269 270 270 272 273
280 275 271 270 268 267 265 265 264 264 265 266 268 269 270 270 271 272 273 273 272 272 272 273 274 274 274 274 274 273 272 270 270 269 269 270 270 271 271 271 271 272 273 274
279 276 274 272 269 267 267 266 265 264 265 268 269 270 271 272 274 274 274 274 275 275 275 275 276 277 277 277 276 276 275 274 273 273 272 272 272 272 272 272 273 273 274 275
277 274 273 272 269 268 268 268 266 266 266 267 269 270 272 273 274 275 275 275 276 277 277 278 278 279 279 279 279 278 278 278 277 276 275 275 275 275 275 275 275 275 275 276
275 274 273 273 272 271 271 270 269 269 270 270 269 270 271 273 275 276 277 278 279 280 280 280 281 281 281 281 281 280 280 280 279 278 278 278 277 277 276 276 276 276 277 277
Height
5646 5646 5647 5648 5649 5650 5650 5652 5653 5655 5657 5659 5659 5660 5661 5663 5665 5667 5669 5671 5672 5674 5675 5677 5678 5680 5681 5682 5683 5685 5686 5686 5687 5688 5689 5689 5690 5690 5691 5691 5692 5692 5692 5692
5640 5640 5640 5641 5643 5643 5644 5645 5646 5647 5650 5652 5651 5652 5654 5656 5657 5659 5661 5663 5664 5666 5667 5668 5669 5670 5672 5673 5674 5675 5675 5676 5677 5677 5678 5678 5679 5679 5680 5680 5680 5681 5681 5681
5632 5633 5632 5634 5637 5637 5637 5639 5639 5640 5644 5643 5644 5645 5647 5648 5650 5651 5653 5654 5656 5657 5658 5659 5661 5662 5663 5664 5665 5665 5666 5666 5667 5667 5668 5668 5668 5669 5669 5670 5670 5670 5670 5671
5625 5626 5625 5630 5629 5629 5629 5631 5631 5632 5634 5635 5636 5638 5639 5640 5642 5643 5644 5646 5647 5648 5649 5651 5652 5653 5654 5655 5655 5656 5656 5657 5657 5657 5658 5658 5658 5659 5659 5660 5660 5660 5661 5661
5618 5617 5618 5621 5621 5621 5621 5623 5624 5625 5626 5627 5628 5630 5631 5632 5633 5635 5636 5637 5638 5640 5641 5642 5643 5644 5645 5646 5646 5647 5647 5647 5648 5648 5648 5648 5649 5649 5650 5650 5651 5651 5651 5652
5611 5610 5611 5615 5614 5613 5614 5615 5616 5617 5618 5619 5621 5623 5624 5624 5626 5627 5628 5629 5630 5631 5633 5634 5635 5635 5636 5637 5638 5638 5638 5639 5639 5639 5639 5640 5640 5640 5641 5641 5642 5642 5643 5643
5603 5602 5603 5606 5605 5606 5608 5609 5608 5609 5610 5611 5613 5615 5616 5616 5618 5619 5620 5621 5622 5623 5625 5626 5626 5627 5628 5629 5629 5630 5630 5630 5631 5631 5631 5631 5632 5632 5632 5633 5633 5634 5634 5635
5596 5595 5599 5597 5597 5599 5599 5600 5600 5601 5602 5604 5605 5606 5607 5608 5609 5611 5612 5613 5614 5616 5617 5618 5619 5619 5620 5621 5621 5622 5622 5622 5623 5623 5623 5623 5624 5624 5624 5625 5625 5626 5626 5626
5589 5591 5590 5589 5589 5590 5591 5592 5593 5594 5595 5596 5597 5598 5599 5601 5602 5603 5604 5605 5606 5608 5609 5610 5611 5612 5612 5613 5614 5614 5614 5615 5615 5615 5615 5615 5616 5616 5616 5617 5617 5618 5618 5618
5580 5581 5581 5581 5581 5582 5582 5583 5585 5586 5587 5588 5590 5591 5592 5593 5594 5595 5596 5597 5598 5600 5601 5602 5603 5604 5604 5605 5606 5606 5606 5607 5607 5607 5607 5607 5608 5608 5608 5609 5609 5610 5610 5610
5570 5572 5572 5573 5572 5573 5574 5575 5577 5578 5579 5581 5582 5583 5584 5585 5586 5588 5589 5590 5590 5592 5593 5594 5595 5596 5596 5597 5598 5598 5598 5599 5599 5599 5599 5600 5600 5600 5601 5601 5602 5602 5602 5603
5562 5563 5562 5563 5563 5564 5565 5566 5568 5570 5572 5573 5574 5575 5576 5577 5578 5580 5581 5582 5583 5584 5585 5586 5587 5588 5588 5589 5589 5590 5590 5591 5591 5592 5592 5592 5592 5593 5593 5593 5594 5594 5594 5594
5553 5553 5553 5554 5555 5556 5557 5559 5561 5562 5564 5565 5566 5567 5568 5569 5571 5572 5573 5574 5575 5576 5577 5578 5579 5580 5581 5581 5581 5582 5582 5583 5583 5583 5584 5584 5584 5584 5585 5585 5585 5586 5586 5586
5545 5544 5545 5546 5548 5549 5550 5552 5553 5555 5557 5558 5559 5560 5561 5562 5563 5564 5565 5566 5567 5568 5569 5570 5571 5572 5573 5573 5574 5574 5574 5575 5575 5575 5575 5576 5576 5576 5576 5577 5577 5577 5577 5577
5540 5539 5539 5540 5541 5542 5544 5545 5546 5548 5549 5551 5552 5553 5554 5555 5556 5557 5558 5559 5560 5561 5562 5563 5563 5564 5565 5565 5565 5566 5566 5566 5567 5567 5567 5567 5567 5567 5568 5568 5568 5568 5568 5568
5536 5535 5534 5535 5535 5536 5537 5539 5540 5541 5542 5543 5544 5545 5547 5548 5549 5549 5550 5551 5552 5553 5554 5555 5555 5556 5556 5557 5557 5557 5558 5558 5558 5558 5559 5559 5559 5559 5559 5559 5559 5559 5559 5558
5532 5531 5530 5530 5530 5531 5531 5532 5533 5534 5535 5536 5537 5538 5539 5540 5541 5542 5542 5543 5544 5545 5546 5546 5547 5547 5548 5548 5548 5549 5549 5549 5549 5549 5550 5550 5550 5550 5550 5549 5549 5549 5549 5548
5527 5526 5525 5525 5524 5525 5525 5526 5526 5527 5528 5529 5530 5531 5531 5532 5533 5534 5535 5535 5536 5536 5537 5537 5538 5538 5539 5539 5539 5539 5540 5540 5540 5540 5540 5540 5540 5540 5540 5540 5540 5539 5539 5538
5522 5521 5520 5519 5519 5519 5519 5519 5520 5521 5521 5522 5523 5523 5524 5525 5525 5526 5526 5527 5527 5528 5528 5528 5529 5529 5529 5529 5530 5530 5530 5530 5530 5530 5530 5531 5530 5530 5530 5530 5529 5529 5528 5528
5515 5515 5514 5513 5513 5513 5513 5513 5513 5514 5514 5515 5516 5516 5517 5517 5518 5518 5518 5518 5519 5519 5519 5519 5519 5520 5520 5520 5520 5520 5520 5520 5520 5520 5520 5520 5520 5520 5520 5519 5519 5518 5517 5517
5509 5508 5507 5507 5507 5507 5507 5507 5507 5507 5508 5508 5509 5509 5510 5510 5510 5510 5510 5510 5510 5510 5510 5510 5510 5510 5510 5510 5510 5510 5510 5510 5510 5509 5509 5509 5509 5509 5509 5508 5508 5507 5506 5505
5502 5501 5501 5501 5500 5500 5501 5501 5501 5501 5501 5501 5502 5502 5502 5502 5502 5502 5502 5502 5502 5502 5501 5501 5501 5501 5500 5500 5500 5499 5499 5499 5499 5498 5498 5498 5498 5497 5497 5497 5496 5495 5495 5494
5495 5494 5494 5494 5494 5494 5494 5494 5494 5494 5494 5494 5495 5495 5495 5495 5494 5494 5494 5494 5493 5493 5493 5492 5492 5491 5491 5490 5490 5489 5488 5488 5488 5487 5487 5487 5486 5486 5485 5485 5484 5483 5482 5481
5488 5487 5487 5487 5487 5487 5487 5487 5487 5487 5487 5487 5487 5487 5487 5487 5487 5486 5486 5485 5485 5484 5484 5483 5482 5482 5481 5480 5479 5479 5478 5477 5477 5476 5476 5475 5475 5474 5474 5473 5472 5471 5470 5469
5480 5480 5480 5480 5480 5480 5480 5480 5480 5480 5480 5480 5480 5480 5479 5479 5479 5478 5478 5477 5476 5475 5475 5474 5473 5472 5472 5471 5470 5469 5468 5467 5466 5465 5465 5464 5463 5462 5461 5460 5459 5458 5457 5456
5473 5473 5473 5472 5472 5472 5472 5472 5472 5472 5472 5472 5472 5472 5471 5471 5471 5470 5469 5469 5468 5467 5466 5465 5464 5463 5462 5461 5460 5459 5458 5457 5456 5455 5454 5453 5452 5450 5449 5448 5446 5445 5444 5442
5466 5466 5466 5465 5465 5465 5465 5465 5464 5464 5464 5464 5464 5463 5463 5463 5462 5461 5461 5460 5459 5458 5457 5456 5455 5454 5453 5451 5450 5449 5447 5446 5445 5443 5442 5441 5439 5438 5436 5435 5433 5432 5430 5429